Location: Austin, TX
(30.3000°N, 97.7500°W)
Time: 08:05:10
(UTC-06:00)

Daily predictions for brighter satellites

Satellite Brightness Start Highest point End
(mag) Time Altitude Azimuth Time Altitude Azimuth Time Altitude Azimuth
BREEZE-M DEB (TANK) 3.7 17:50:19 10° NW 17:58:23 40° NNE 18:01:43 10° E
SMAP 3.0 17:57:20 10° SSE 18:01:56 67° ENE 18:06:32 10° N
Cosmos 972 Rocket 3.8 17:57:23 10° N 18:02:16 73° ENE 18:07:16 10° SSE
ERS-2 3.3 17:59:56 10° ESE 18:02:49 22° ENE 18:05:40 10° NNE
AQUARIUS 4.1 18:05:12 10° SSE 18:09:41 81° ENE 18:14:11 10° N
Cosmos 2233 Rocket 4.1 18:03:24 10° S 18:09:41 85° W 18:15:57 10° N
Cosmos 1908 Rocket 3.9 18:06:08 10° N 18:10:13 40° E 18:14:16 10° SSE
SKYMED 2 3.9 18:06:49 10° NNE 18:10:59 44° E 18:15:06 10° S
Cosmos 1763 Rocket 3.6 18:07:06 10° N 18:12:09 51° ENE 18:17:05 10° SSE
Cosmos 1733 Rocket 3.5 18:08:03 10° NNW 18:12:28 67° W 18:16:52 10° S
BREEZE-M DEB (TANK) 3.8 18:07:55 10° NW 18:19:19 65° SW 18:22:47 10° SSE
Cosmos 972 4.5 18:16:19 10° N 18:21:07 51° ENE 18:25:51 10° SSE
Sich 1 Rocket 3.8 18:18:16 10° N 18:22:33 46° E 18:26:50 10° SSE
COSMOS 2406 4.1 18:18:10 10° NNW 18:23:43 55° WSW 18:29:14 10° S
Cosmos 1814 Rocket 4.0 18:18:49 10° NNW 18:24:11 79° ENE 18:29:31 10° SSE
SL-27 R/B 3.3 18:21:41 10° NNE 18:24:29 25° ENE 18:27:18 10° SE
IUS-13 SRM-1 2.1 18:23:33 10° WSW 18:25:13 34° S 18:26:55 15° ESE
Cosmos 1503 Rocket 4.0 18:20:42 10° S 18:25:56 65° ESE 18:31:08 10° NNE
Meteor 1-14 Rocket 4.2 18:23:50 10° N 18:29:29 87° E 18:35:01 10° S
IRS-1A Rocket 4.3 18:23:55 10° SSE 18:29:46 83° ENE 18:35:33 10° NNW
Ariane Rocket 4.0 18:26:22 10° S 18:31:19 52° W 18:36:16 10° NNW
FENGYUN 3A 4.2 18:28:09 10° SE 18:33:01 35° ENE 18:37:53 10° N
Cosmos 968 Rocket 4.4 18:30:45 10° SSE 18:35:01 27° E 18:37:11 20° ENE
CZ-4C R/B 4.3 18:31:09 10° NNE 18:35:02 15° NE 18:35:39 15° NE
Okean 1-7 2.9 18:31:34 10° S 18:35:54 73° E 18:40:16 10° N
CZ-4 R/B 4.3 18:31:53 10° SSE 18:36:01 79° E 18:40:11 10° N
CZ-4 R/B 2.3 18:36:44 10° S 18:40:31 49° W 18:44:16 10° NNW
Cosmos 540 Rocket 4.0 18:36:47 10° N 18:41:28 34° ENE 18:46:07 10° SE
Cosmos 1633 2.5 18:38:15 10° N 18:41:52 59° E 18:45:29 10° SSE
Cosmos 2297 3.7 18:36:13 10° SSW 18:41:55 89° ESE 18:47:40 10° NNE
DMSP B5D1-3 4.5 18:40:07 10° NNE 18:45:15 66° ESE 18:50:21 10° S
USA 234 3.7 18:40:04 10° NNE 18:46:27 58° NW 18:52:50 10° WSW
Cosmos 841 Rocket 3.4 18:41:33 10° NNW 18:46:51 85° ENE 18:52:05 10° SSE
Cosmos 1833 Rocket 3.2 18:42:25 10° N 18:47:34 36° ENE 18:52:41 10° SE
Cosmos 2278 Rocket 4.0 18:42:59 10° SW 18:47:53 30° WNW 18:52:50 10° N
Meteor 1-11 Rocket 4.5 18:43:13 10° NNE 18:48:16 30° ENE 18:53:10 10° SE
GPS 2-05 Rocket1 2.5 18:45:42 10° WSW 18:48:53 84° NNW 18:49:39 49° ENE
Cosmos 1891 Rocket 4.4 18:44:08 10° S 18:50:19 72° E 18:56:24 10° N
YAOGAN 1 3.3 18:49:53 10° S 18:54:06 55° W 18:58:21 10° NNW
MOS 1 4.2 18:48:39 10° SSE 18:54:20 87° ENE 19:00:04 10° NNW
Cosmos 1782 Rocket 3.4 18:50:17 10° N 18:54:39 79° E 18:58:59 10° S
MONITOR-E 4.4 18:55:15 10° S 18:58:16 68° W 19:01:17 10° NNW
COSMO-SKYMED 1 3.7 18:54:53 10° N 18:59:00 43° WNW 19:03:05 10° SW
Cosmos 1441 Rocket 3.1 18:56:15 10° S 19:00:11 68° E 19:01:41 35° NNE
Cosmos 1606 4.4 18:57:27 10° SSW 19:00:54 33° W 19:04:22 10° NNW
SPOT 3 Rocket 3.4 18:56:46 10° SSE 19:01:59 84° ENE 19:07:13 10° N
OAO 3 Rocket 3.2 18:58:25 10° WSW 19:03:20 79° SSE 19:04:51 45° E
Cosmos 2221 Rocket 4.5 19:03:02 10° SSW 19:07:18 49° W 19:11:34 10° N
Cosmos 2034 Rocket 4.0 19:04:17 10° S 19:10:39 90° W 19:17:03 10° N
Nadezhda 4 Rocket 4.0 19:09:25 10° N 19:15:20 50° E 19:21:13 10° SSE
NOAA 12 4.2 19:12:07 10° S 19:17:26 79° WSW 19:22:46 10° NNW
ERBS 3.9 19:16:18 10° NW 19:19:24 34° WSW 19:20:49 24° S
Tiangong 1 3.9 19:25:56 10° WSW 19:26:25 14° WSW 19:26:25 14° WSW
USA 229 DEB 3.6 19:22:22 10° SSW 19:28:57 62° ESE 19:30:03 55° ENE
USA 229 3.6 19:22:29 10° SSW 19:29:04 61° ESE 19:30:06 55° ENE
ALOS 3.1 19:25:29 10° S 19:30:00 51° W 19:34:33 10° NNW
Gblst 52 Del rocket 4.1 19:26:19 10° SSW 19:31:47 69° SE 19:32:01 68° ESE
Cosmos 2082 Rocket 2.1 19:27:59 10° NNW 19:33:41 85° WSW 19:38:09 17° SSE
Okean 2 Rocket 3.8 19:29:27 10° NNW 19:33:53 55° W 19:38:16 10° S
FengYun 1-2 T 4.1 19:32:10 10° SSE 19:37:59 76° NNE 19:43:12 10° N
Meteor 2-20 4.4 19:33:26 10° N 19:39:30 78° W 19:45:32 10° S
Thor Agena Rocket 3.9 19:39:42 38° N 19:41:32 62° WNW 19:46:36 10° SSW
CZ-4C R/B 4.0 20:17:10 10° NNW 20:20:54 33° NNW 20:20:54 33° NNW
Cosmos 2369 Rocket 4.1 20:19:13 10° SSW 20:21:00 21° SSW 20:21:00 21° SSW
